FW7943 Weather Reports


Display with metric or nautical units.
time (UTC)temp
F
wind
direction
speed
MPH
gust
MPH
rain 1hr
in
rain 24hr
in
rain mn
in
humidity
%
barometer
mb
20260906112424 65 34 0.0 0.0 0.00 0.00 0.00 99 1016.4
20260906111920 65 34 0.0 0.0 0.00 0.00 0.00 99 1016.2
20260906111420 65 33 0.0 0.0 0.00 0.00 0.00 99 1016.4
20260906110914 65 33 0.0 0.0 0.00 0.00 0.00 99 1016.1
20260906110410 65 33 0.0 0.0 0.00 0.00 0.00 99 1016.2
20260906105909 65 33 0.0 0.0 0.00 0.00 0.00 99 1016.1
20260906105404 65 33 0.0 0.0 0.00 0.00 0.00 99 1016.0
20260906104900 65 33 0.0 0.0 0.00 0.00 0.00 99 1015.7
20260906104359 65 33 0.0 0.0 0.00 0.00 0.00 99 1015.6
20260906103857 66 33 0.0 0.0 0.00 0.00 0.00 99 1015.7
20260906103356 66 33 0.0 0.0 0.00 0.00 0.00 99 1015.6
20260906102852 66 33 0.0 0.0 0.00 0.00 0.00 99 1015.4
20260906102352 66 34 0.0 0.0 0.00 0.00 0.00 99 1015.5
20260906101846 66 33 0.0 0.0 0.00 0.00 0.00 99 1015.4
20260906101341 66 33 0.0 0.0 0.00 0.00 0.00 99 1015.7
20260906100837 66 35 0.0 0.0 0.00 0.00 0.00 99 1015.3
20260906100336 66 31 0.0 0.0 0.00 0.00 0.00 99 1015.7
20260906095831 66 48 0.0 0.0 0.00 0.00 0.00 99 1015.4
20260906095326 66 48 0.0 0.0 0.00 0.00 0.00 99 1015.4
20260906094826 66 48 0.0 0.0 0.00 0.00 0.00 99 1015.2
20260906094320 66 50 0.0 0.0 0.00 0.00 0.00 99 1015.4
20260906093811 66 356 0.0 0.0 0.00 0.00 0.00 99 1015.5
20260906093307 66 6 0.0 0.0 0.00 0.00 0.00 99 1015.7
20260906092802 66 6 0.0 0.0 0.00 0.00 0.00 99 1015.6
20260906092301 66 6 0.0 0.0 0.00 0.00 0.00 99 1015.3
20260906091757 66 6 0.0 0.0 0.00 0.00 0.00 99 1015.1
20260906091254 66 5 0.0 0.0 0.00 0.00 0.00 99 1015.2
20260906090750 66 6 0.0 0.0 0.00 0.00 0.00 99 1015.0
20260906090249 66 5 0.0 0.0 0.00 0.00 0.00 99 1015.0
20260906085748 66 5 0.0 0.0 0.00 0.00 0.00 99 1015.4
20260906085247 66 5 0.0 0.0 0.00 0.00 0.00 99 1015.1
20260906084743 65 6 0.0 0.0 0.00 0.00 0.00 99 1015.1
20260906084242 65 6 0.0 0.0 0.00 0.00 0.00 99 1015.0
20260906083737 66 7 0.0 0.0 0.00 0.00 0.00 99 1015.0
20260906083232 65 341 0.0 0.0 0.00 0.00 0.00 99 1015.1
20260906082728 65 343 0.0 0.0 0.00 0.00 0.00 99 1015.3
20260906082222 65 325 0.0 0.0 0.00 0.00 0.00 99 1015.3
20260906081719 65 330 0.0 0.0 0.00 0.00 0.00 99 1015.5
20260906081213 66 331 0.0 0.0 0.00 0.00 0.00 99 1015.3
20260906080710 66 331 0.0 0.0 0.00 0.00 0.00 99 1015.3
20260906080206 66 330 0.0 0.0 0.00 0.00 0.00 99 1015.1
20260906075706 66 358 0.0 0.0 0.00 0.00 0.00 99 1015.3
20260906075200 66 359 0.0 0.0 0.00 0.00 0.00 99 1015.2
20260906074655 65 0 0.0 0.0 0.00 0.00 0.00 99 1015.1
20260906074149 65 0 0.0 0.0 0.00 0.00 0.00 99 1014.9
20260906073644 65 0 0.0 0.0 0.00 0.00 0.00 99 1015.1
20260906073140 65 0 0.0 0.0 0.00 0.00 0.00 99 1015.1
20260906072634 65 337 0.0 0.0 0.00 0.00 0.00 99 1015.3
20260906072130 66 336 0.0 0.0 0.00 0.00 0.00 99 1015.2
20260906071621 66 336 0.0 0.0 0.00 0.00 0.00 99 1015.1
20260906071121 66 336 0.0 0.0 0.00 0.00 0.00 99 1014.9
20260906070618 66 336 0.0 0.0 0.00 0.00 0.00 99 1015.3
20260906070113 66 336 0.0 0.0 0.00 0.00 0.00 99 1015.3
20260906065613 66 336 0.0 0.0 0.00 0.00 0.00 99 1015.3
20260906065108 66 336 0.0 0.0 0.00 0.00 0.00 99 1015.2
20260906064603 66 336 0.0 0.0 0.00 0.00 0.00 99 1015.3
20260906064058 66 336 0.0 0.0 0.00 0.00 0.00 99 1015.5
20260906063553 66 336 0.0 0.0 0.00 0.00 0.00 99 1015.6
20260906063049 66 336 0.0 0.0 0.00 0.00 0.00 99 1015.6
20260906062545 66 335 0.0 0.0 0.00 0.00 0.00 99 1015.6
20260906062044 66 335 0.0 0.0 0.00 0.00 0.00 99 1015.5
20260906061541 66 334 0.0 0.0 0.00 0.00 0.00 99 1015.6
20260906061040 66 81 0.0 0.0 0.00 0.00 0.00 99 1015.3
20260906060536 66 83 0.0 0.0 0.00 0.00 0.00 99 1015.4
20260906060033 66 52 0.0 0.0 0.00 0.00 0.00 99 1015.4
20260906055529 66 3 0.0 0.0 0.00 0.00 0.00 99 1015.7
20260906055024 66 3 0.0 0.0 0.00 0.00 0.00 99 1015.9
20260906054524 66 4 0.0 0.0 0.00 0.00 0.00 99 1015.9
20260906054019 66 4 0.0 0.0 0.00 0.00 0.00 99 1016.0
20260906053516 66 3 0.0 0.0 0.00 0.00 0.00 99 1016.0
20260906053011 66 2 0.0 0.0 0.00 0.00 0.00 99 1016.1
20260906052507 66 2 0.0 0.0 0.00 0.00 0.00 99 1016.2
20260906052004 67 2 0.0 0.0 0.00 0.00 0.00 99 1016.1
20260906051459 66 2 0.0 0.0 0.00 0.00 0.00 99 1016.0
20260906050955 66 2 0.0 0.0 0.00 0.00 0.00 99 1016.1
20260906050454 66 2 0.0 0.0 0.00 0.00 0.00 99 1016.1
20260906045954 67 2 0.0 0.0 0.00 0.00 0.00 99 1016.0
20260906045452 67 2 0.0 0.0 0.00 0.00 0.00 99 1015.9
20260906044948 67 2 0.0 0.0 0.00 0.00 0.00 99 1015.9
20260906044444 67 2 0.0 0.0 0.00 0.00 0.00 99 1016.0
20260906043939 67 93 0.0 0.0 0.00 0.00 0.00 99 1015.9
20260906043435 67 103 0.0 0.0 0.00 0.00 0.00 99 1015.4
20260906042931 67 104 0.0 0.0 0.00 0.00 0.00 99 1015.9
20260906042429 67 94 0.0 0.0 0.00 0.00 0.00 99 1015.7
20260906041924 67 94 0.0 0.0 0.00 0.00 0.00 99 1015.6
20260906041415 67 95 0.0 0.0 0.00 0.00 0.00 99 1015.7
20260906040914 67 94 0.0 0.0 0.00 0.00 0.00 99 1016.0
20260906040410 68 110 2.0 2.0 0.00 0.00 0.00 99 1015.9
20260906035905 68 19 0.0 0.0 0.00 0.14 0.14 99 1016.1
20260906035400 68 18 0.0 0.0 0.00 0.14 0.14 98 1016.3
20260906034855 68 18 0.0 0.0 0.00 0.14 0.14 98 1016.2
20260906034350 68 18 0.0 0.0 0.00 0.14 0.14 98 1016.3
20260906033846 68 18 0.0 0.0 0.00 0.14 0.14 98 1016.3
20260906033345 68 18 0.0 0.0 0.00 0.14 0.14 98 1016.2
20260906032842 68 9 0.0 0.0 0.00 0.14 0.14 97 1016.5
20260906032337 68 8 0.0 0.0 0.00 0.14 0.14 97 1016.3
20260906031832 68 8 0.0 0.0 0.00 0.14 0.14 97 1016.4
20260906031328 68 7 0.0 0.0 0.00 0.14 0.14 97 1016.6
20260906030827 68 6 0.0 0.0 0.00 0.14 0.14 96 1016.3
20260906030323 68 6 0.0 0.0 0.00 0.14 0.14 96 1016.4
20260906025822 68 6 0.0 0.0 0.00 0.14 0.14 96 1016.4
20260906025311 69 6 0.0 0.0 0.00 0.14 0.14 96 1016.5
20260906024810 69 6 0.0 0.0 0.00 0.14 0.14 96 1016.5
20260906024309 69 6 0.0 0.0 0.00 0.14 0.14 96 1016.5
20260906023805 69 6 0.0 0.0 0.00 0.14 0.14 96 1016.5
20260906023300 69 6 0.0 0.0 0.00 0.14 0.14 95 1016.5
20260906022756 69 6 0.0 0.0 0.00 0.14 0.14 95 1016.6
20260906022251 69 6 0.0 0.0 0.00 0.14 0.14 94 1016.7
20260906021747 70 5 0.0 0.0 0.00 0.14 0.14 94 1016.5
20260906021246 70 5 0.0 0.0 0.00 0.14 0.14 94 1016.6
20260906020741 70 6 0.0 0.0 0.00 0.14 0.14 94 1016.5
20260906020240 70 352 0.0 0.0 0.00 0.14 0.14 93 1016.7
20260906015735 70 352 0.0 0.0 0.00 0.14 0.14 93 1016.5
20260906015234 70 352 0.0 0.0 0.00 0.14 0.14 93 1016.3
20260906014729 70 352 0.0 0.0 0.00 0.14 0.14 93 1016.2
20260906014224 70 352 0.0 0.0 0.00 0.14 0.14 93 1016.3
20260906013720 70 352 0.0 0.0 0.00 0.14 0.14 93 1016.3
20260906013220 70 354 0.0 0.0 0.00 0.14 0.14 93 1016.3
20260906012715 70 342 0.0 0.0 0.00 0.14 0.14 93 1016.2
20260906012210 70 342 0.0 0.0 0.00 0.14 0.14 92 1016.2
20260906011706 71 342 0.0 0.0 0.00 0.14 0.14 92 1016.2
20260906011205 71 341 0.0 0.0 0.00 0.14 0.14 91 1015.9
20260906010701 71 341 0.0 0.0 0.00 0.14 0.14 91 1016.0
20260906010157 71 342 0.0 0.0 0.00 0.14 0.14 92 1015.9
20260906005657 71 342 0.0 0.0 0.00 0.14 0.14 92 1015.7
20260906005156 71 343 0.0 0.0 0.00 0.14 0.14 91 1015.6
20260906004655 71 343 0.0 0.0 0.00 0.14 0.14 90 1016.0
20260906004150 71 342 0.0 0.0 0.00 0.14 0.14 90 1015.7
20260906003646 71 342 0.0 0.0 0.00 0.14 0.14 89 1015.6
20260906003141 72 342 0.0 0.0 0.00 0.14 0.14 89 1015.5
20260906002636 72 343 0.0 0.0 0.00 0.14 0.14 88 1015.4
20260906002131 72 343 0.0 0.0 0.00 0.14 0.14 87 1015.5
20260906001626 72 342 0.0 0.0 0.00 0.14 0.14 87 1015.6
20260906001126 73 343 0.0 0.0 0.00 0.14 0.14 87 1015.9
20260906000622 73 343 0.0 0.0 0.00 0.14 0.14 86 1015.7
20260906000117 73 343 0.0 0.0 0.00 0.14 0.14 85 1015.7
20260905235616 73 342 0.0 0.0 0.00 0.14 0.14 85 1015.7
20260905235111 73 342 0.0 0.0 0.00 0.14 0.14 84 1016.0
20260905234606 74 333 0.0 0.0 0.00 0.14 0.14 84 1015.7
20260905234102 74 336 0.0 0.0 0.00 0.14 0.14 84 1015.7
20260905233601 74 322 0.0 0.0 0.00 0.14 0.14 83 1015.9
20260905233056 74 323 0.0 0.0 0.00 0.14 0.14 83 1015.9
20260905232552 74 323 0.0 0.0 0.00 0.14 0.14 83 1015.6
20260905232047 74 323 0.0 0.0 0.00 0.14 0.14 83 1015.7
20260905231542 74 324 0.0 0.0 0.00 0.14 0.14 82 1015.9
20260905231039 74 325 0.0 0.0 0.00 0.14 0.14 81 1015.7
20260905230538 75 325 0.0 0.0 0.00 0.14 0.14 81 1016.3
20260905230036 75 310 0.0 0.0 0.00 0.14 0.14 81 1015.9
20260905225525 75 327 0.0 0.0 0.00 0.14 0.14 81 1015.7
20260905225020 75 303 0.0 0.0 0.00 0.14 0.14 81 1016.2
20260905224515 76 342 0.0 0.0 0.00 0.14 0.14 79 1015.9
20260905224014 76 315 2.0 2.0 0.00 0.14 0.14 79 1015.9
20260905223512 77 332 0.0 0.0 0.00 0.14 0.14 78 1015.6
20260905223008 77 315 1.0 1.0 0.00 0.14 0.14 77 1016.1
20260905222508 78 318 1.0 1.0 0.00 0.14 0.14 76 1015.9
20260905222003 78 332 1.0 1.0 0.00 0.14 0.14 76 1015.6
20260905221500 77 292 3.0 3.0 0.00 0.14 0.14 75 1015.7
20260905220955 78 307 3.0 5.0 0.00 0.14 0.14 75 1015.5
20260905220451 78 307 1.0 2.0 0.00 0.14 0.14 76 1015.5
20260905215950 78 337 2.0 3.0 0.00 0.14 0.14 76 1015.6
20260905215446 78 339 1.0 2.0 0.00 0.14 0.14 77 1015.4
20260905214942 78 290 3.0 3.0 0.00 0.14 0.14 76 1015.5
20260905214438 78 322 2.0 2.0 0.00 0.14 0.14 76 1015.4
20260905213938 79 326 2.0 2.0 0.00 0.14 0.14 76 1015.1
20260905213434 79 329 1.0 2.0 0.00 0.14 0.14 77 1015.2
20260905212929 79 291 3.0 3.0 0.00 0.14 0.14 76 1015.1
20260905212424 78 329 0.0 0.0 0.00 0.14 0.14 75 1015.1
20260905211923 79 312 1.0 1.0 0.00 0.14 0.14 74 1015.1
20260905211419 79 306 1.0 2.0 0.00 0.14 0.14 74 1015.2
20260905210915 78 300 1.0 3.0 0.00 0.14 0.14 72 1015.0
20260905210415 78 328 4.0 5.0 0.00 0.14 0.14 71 1015.1
20260905205914 79 329 4.0 5.0 0.00 0.14 0.14 71 1015.1
20260905205409 79 313 2.0 3.0 0.00 0.14 0.14 74 1014.8
20260905204908 79 342 1.0 2.0 0.00 0.14 0.14 71 1015.2
20260905204404 79 339 1.0 1.0 0.00 0.14 0.14 71 1015.2
20260905203903 79 324 2.0 3.0 0.00 0.14 0.14 71 1015.0
20260905203359 79 331 3.0 5.0 0.00 0.14 0.14 72 1015.1
20260905202854 79 317 2.0 2.0 0.00 0.14 0.14 72 1015.1
20260905202349 79 296 1.0 1.0 0.00 0.14 0.14 72 1015.0
20260905201845 79 321 0.0 0.0 0.00 0.14 0.14 73 1015.2
20260905201340 78 336 3.0 3.0 0.00 0.14 0.14 73 1015.2
20260905200839 78 344 5.0 7.0 0.00 0.14 0.14 73 1015.1
20260905200336 78 325 1.0 1.0 0.00 0.14 0.14 75 1015.0
20260905195834 78 328 2.0 2.0 0.00 0.14 0.14 74 1015.3
20260905195329 78 292 2.0 2.0 0.00 0.14 0.14 76 1015.3
20260905194825 78 351 2.0 2.0 0.00 0.14 0.14 74 1015.3
20260905194324 78 338 0.0 1.0 0.00 0.14 0.14 75 1015.3
20260905193824 78 21 3.0 3.0 0.00 0.14 0.14 73 1015.5
20260905193319 78 336 2.0 2.0 0.00 0.14 0.14 74 1015.5
20260905192815 78 336 2.0 2.0 0.00 0.14 0.14 76 1015.9
20260905192311 78 348 5.0 6.0 0.00 0.14 0.14 74 1015.6
20260905191809 78 329 2.0 2.0 0.00 0.14 0.14 75 1015.6
20260905191308 78 354 2.0 3.0 0.00 0.14 0.14 79 1015.9
20260905190807 78 345 2.0 2.0 0.00 0.14 0.14 77 1015.7
20260905190301 78 310 2.0 2.0 0.00 0.14 0.14 79 1016.1
20260905185759 78 2 3.0 3.0 0.00 0.14 0.14 76 1016.1
20260905185249 77 327 1.0 2.0 0.00 0.14 0.14 73 1016.3
20260905184748 78 330 3.0 3.0 0.00 0.14 0.14 73 1016.3
20260905184247 77 4 2.0 2.0 0.00 0.14 0.14 72 1016.4
20260905183741 78 336 2.0 2.0 0.00 0.14 0.14 74 1016.5
20260905183237 78 295 1.0 2.0 0.00 0.14 0.14 75 1016.3
20260905182736 78 336 4.0 5.0 0.00 0.14 0.14 74 1016.5
20260905182236 78 15 3.0 5.0 0.00 0.14 0.14 73 1016.4
20260905181732 78 342 0.0 0.0 0.00 0.14 0.14 75 1016.5
20260905181230 78 353 1.0 1.0 0.00 0.14 0.14 81 1016.7
20260905180725 78 21 0.0 0.0 0.00 0.14 0.14 80 1016.6
20260905180220 77 325 0.0 0.0 0.00 0.14 0.14 82 1016.5
20260905175715 77 192 1.0 2.0 0.00 0.14 0.14 81 1016.3
20260905175210 76 315 0.0 0.0 0.00 0.14 0.14 83 1016.7
20260905174705 77 316 1.0 1.0 0.00 0.14 0.14 83 1016.8
20260905174200 77 57 1.0 1.0 0.00 0.14 0.14 83 1016.7
20260905173656 77 290 0.0 0.0 0.00 0.14 0.14 84 1016.9
20260905173152 76 344 0.0 0.0 0.00 0.14 0.14 87 1016.8
20260905172651 75 310 1.0 2.0 0.00 0.14 0.14 88 1016.9
20260905172145 74 282 1.0 1.0 0.00 0.14 0.14 89 1017.0
20260905171641 74 288 2.0 2.0 0.00 0.14 0.14 91 1017.4
20260905171137 74 309 2.0 2.0 0.00 0.14 0.14 91 1017.2
20260905170634 73 335 1.0 1.0 0.00 0.14 0.14 93 1016.7
20260905170129 72 280 1.0 1.0 0.00 0.14 0.14 94 1017.0
20260905165623 72 314 0.0 0.0 0.00 0.14 0.14 95 1017.2
20260905165119 72 0 1.0 1.0 0.00 0.14 0.14 94 1017.0
20260905164614 72 356 0.0 1.0 0.00 0.14 0.14 96 1017.1
20260905164113 71 315 1.0 1.0 0.00 0.14 0.14 95 1016.9
20260905163609 72 336 2.0 2.0 0.00 0.14 0.14 95 1017.0
20260905163106 71 292 2.0 2.0 0.00 0.14 0.14 95 1017.0
20260905162602 71 285 3.0 5.0 0.00 0.14 0.14 95 1017.0
20260905162101 71 307 2.0 3.0 0.00 0.14 0.14 95 1017.0
20260905161600 71 306 2.0 2.0 0.00 0.14 0.14 96 1017.1
20260905161058 71 301 2.0 2.0 0.00 0.14 0.14 96 1017.6
20260905160557 71 309 2.0 2.0 0.00 0.14 0.14 96 1017.1
20260905160057 71 325 0.0 0.0 0.00 0.14 0.14 96 1017.0
20260905155552 71 216 0.0 0.0 0.00 0.14 0.14 96 1016.7
20260905155050 70 329 0.0 0.0 0.00 0.14 0.14 96 1016.9
20260905154545 70 334 0.0 1.0 0.00 0.14 0.14 96 1017.0
20260905154041 70 317 1.0 2.0 0.00 0.14 0.14 96 1017.1
20260905153537 70 308 0.0 0.0 0.00 0.14 0.14 95 1017.5
20260905153036 70 298 0.0 0.0 0.00 0.14 0.14 95 1017.6
20260905152531 70 265 0.0 0.0 0.00 0.14 0.14 95 1017.8
20260905152026 70 49 1.0 1.0 0.00 0.14 0.14 95 1018.0
20260905151521 69 41 1.0 1.0 0.00 0.14 0.14 96 1018.1
20260905151017 69 76 1.0 1.0 0.00 0.14 0.14 98 1018.2
20260905150512 69 40 2.0 2.0 0.00 0.14 0.14 99 1018.4
20260905150010 69 36 0.0 1.0 0.00 0.14 0.14 99 1018.5
20260905145503 68 110 2.0 2.0 0.00 0.14 0.14 99 1018.8
20260905145003 68 78 1.0 1.0 0.00 0.14 0.14 99 1018.6
20260905144458 69 2 1.0 1.0 0.00 0.14 0.14 99 1018.9
20260905143956 68 341 1.0 2.0 0.00 0.14 0.14 99 1018.6
20260905143455 69 16 0.0 0.0 0.00 0.14 0.14 99 1018.3
20260905142951 68 354 0.0 1.0 0.00 0.14 0.14 99 1018.6
20260905142449 68 24 0.0 0.0 0.00 0.14 0.14 99 1018.4
20260905141945 68 25 1.0 1.0 0.00 0.14 0.14 99 1018.4
20260905141440 68 103 1.0 2.0 0.00 0.14 0.14 99 1018.8
20260905140936 68 56 0.0 1.0 0.00 0.14 0.14 99 1018.4
20260905140431 68 10 0.0 0.0 0.00 0.14 0.14 99 1018.8
20260905135930 68 41 1.0 1.0 0.00 0.14 0.14 99 1018.5
20260905135426 68 333 0.0 0.0 0.12 0.14 0.14 99 1018.6
20260905134921 68 332 0.0 1.0 0.24 0.14 0.14 98 1018.9
20260905134420 69 333 5.0 8.0 0.73 0.12 0.12 98 1018.4
20260905133915 70 11 6.0 8.0 0.54 0.09 0.09 96 1018.4
20260905133415 72 336 3.0 3.0 0.00 0.00 0.00 94 1018.6
20260905132914 71 310 1.0 2.0 0.00 0.00 0.00 96 1018.1
20260905132410 71 321 2.0 2.0 0.00 0.00 0.00 96 1018.2
20260905131904 71 338 2.0 3.0 0.00 0.00 0.00 96 1017.9
20260905131400 71 312 0.0 0.0 0.00 0.00 0.00 96 1017.0
20260905130855 71 312 0.0 0.0 0.00 0.00 0.00 96 1017.2
20260905130354 71 310 0.0 0.0 0.00 0.00 0.00 96 1017.1
20260905125849 71 310 0.0 0.0 0.00 0.00 0.00 95 1017.2
20260905125344 71 310 0.0 0.0 0.00 0.00 0.00 95 1017.2
20260905124840 71 310 0.0 0.0 0.00 0.00 0.00 95 1017.0
20260905124336 71 310 0.0 0.0 0.00 0.00 0.00 96 1016.8
20260905123836 71 310 0.0 0.0 0.00 0.00 0.00 96 1017.0
20260905123333 71 310 0.0 0.0 0.00 0.00 0.00 97 1016.9
20260905122832 70 310 0.0 0.0 0.00 0.00 0.00 98 1017.2
20260905122332 70 310 0.0 0.0 0.00 0.00 0.00 99 1017.2
20260905121827 69 310 0.0 0.0 0.00 0.00 0.00 99 1017.2
20260905121324 69 310 0.0 0.0 0.00 0.00 0.00 99 1017.1
20260905120822 69 310 0.0 0.0 0.00 0.00 0.00 99 1017.1
20260905120317 69 310 0.0 0.0 0.00 0.00 0.00 99 1017.0
20260905115812 68 310 0.0 0.0 0.00 0.00 0.00 99 1017.2
20260905115312 68 310 0.0 0.0 0.00 0.00 0.00 99 1016.8
20260905114811 68 311 0.0 0.0 0.00 0.00 0.00 99 1016.7
20260905114310 68 324 0.0 0.0 0.00 0.00 0.00 99 1016.9
20260905113810 68 325 0.0 0.0 0.00 0.00 0.00 99 1016.7
20260905113306 67 325 0.0 0.0 0.00 0.00 0.00 99 1016.7
20260905112801 68 325 0.0 0.0 0.00 0.00 0.00 99 1016.8